owner,sensor,date,latitude,longitude,vertical_datum,sea_water_practical_salinity,qcFlag 
NERRS,ioos:station:NOAA.NERRS:marcwwq:1,2011-09-01T06:00:00Z,28.0841,-97.2009,0.0,31.7,1111122 
NERRS,ioos:station:NOAA.NERRS:marcwwq:1,2011-09-01T06:30:00Z,28.0841,-97.2009,0.0,31.7,1111122 
NERRS,ioos:station:NOAA.NERRS:marcwwq:1,2011-09-01T07:00:00Z,28.0841,-97.2009,0.0,31.8,1111122 
NERRS,ioos:station:NOAA.NERRS:marcwwq:1,2011-09-01T07:30:00Z,28.0841,-97.2009,0.0,31.8,1111122 
NERRS,ioos:station:NOAA.NERRS:marcwwq:1,2011-09-01T08:00:00Z,28.0841,-97.2009,0.0,31.8,1111122 
NERRS,ioos:station:NOAA.NERRS:marcwwq:1,2011-09-01T08:30:00Z,28.0841,-97.2009,0.0,31.8,1111122 
NERRS,ioos:station:NOAA.NERRS:marcwwq:1,2011-09-01T09:00:00Z,28.0841,-97.2009,0.0,31.8,1111122 
NERRS,ioos:station:NOAA.NERRS:marcwwq:1,2011-09-01T09:30:00Z,28.0841,-97.2009,0.0,31.7,1111122 
NERRS,ioos:station:NOAA.NERRS:marcwwq:1,2011-09-01T10:00:00Z,28.0841,-97.2009,0.0,31.8,1111122 
NERRS,ioos:station:NOAA.NERRS:marcwwq:1,2011-09-01T10:30:00Z,28.0841,-97.2009,0.0,31.8,1111122 
NERRS,ioos:station:NOAA.NERRS:marcwwq:1,2011-09-01T11:00:00Z,28.0841,-97.2009,0.0,31.8,1111122 
NERRS,ioos:station:NOAA.NERRS:marcwwq:1,2011-09-01T11:30:00Z,28.0841,-97.2009,0.0,31.8,1111122 
NERRS,ioos:station:NOAA.NERRS:marcwwq:1,2011-09-01T12:00:00Z,28.0841,-97.2009,0.0,31.8,1111122 
NERRS,ioos:station:NOAA.NERRS:marcwwq:1,2011-09-01T12:30:00Z,28.0841,-97.2009,0.0,31.8,1111122 
NERRS,ioos:station:NOAA.NERRS:marcwwq:1,2011-09-01T13:00:00Z,28.0841,-97.2009,0.0,30.9,1111122 
NERRS,ioos:station:NOAA.NERRS:marcwwq:1,2011-09-01T13:30:00Z,28.0841,-97.2009,0.0,31.9,1111122 
NERRS,ioos:station:NOAA.NERRS:marcwwq:1,2011-09-01T14:00:00Z,28.0841,-97.2009,0.0,30.6,1111122 
NERRS,ioos:station:NOAA.NERRS:marcwwq:1,2011-09-01T14:30:00Z,28.0841,-97.2009,0.0,30.2,1111122 
NERRS,ioos:station:NOAA.NERRS:marcwwq:1,2011-09-01T15:00:00Z,28.0841,-97.2009,0.0,31.6,1111122 
NERRS,ioos:station:NOAA.NERRS:marcwwq:1,2011-09-01T15:30:00Z,28.0841,-97.2009,0.0,30.1,1111122 
NERRS,ioos:station:NOAA.NERRS:marcwwq:1,2011-09-01T16:00:00Z,28.0841,-97.2009,0.0,30.0,1111122 
NERRS,ioos:station:NOAA.NERRS:marcwwq:1,2011-09-01T16:30:00Z,28.0841,-97.2009,0.0,31.5,1111122 
NERRS,ioos:station:NOAA.NERRS:marcwwq:1,2011-09-01T17:00:00Z,28.0841,-97.2009,0.0,30.1,1111122 
NERRS,ioos:station:NOAA.NERRS:marcwwq:1,2011-09-01T17:30:00Z,28.0841,-97.2009,0.0,31.1,1111122 
NERRS,ioos:station:NOAA.NERRS:marcwwq:1,2011-09-01T18:00:00Z,28.0841,-97.2009,0.0,30.2,1111122 
NERRS,ioos:station:NOAA.NERRS:marcwwq:1,2011-09-01T18:30:00Z,28.0841,-97.2009,0.0,31.9,1111122 
NERRS,ioos:station:NOAA.NERRS:marcwwq:1,2011-09-01T19:00:00Z,28.0841,-97.2009,0.0,31.9,1111122 
NERRS,ioos:station:NOAA.NERRS:marcwwq:1,2011-09-01T19:30:00Z,28.0841,-97.2009,0.0,31.8,1111122 
NERRS,ioos:station:NOAA.NERRS:marcwwq:1,2011-09-01T20:00:00Z,28.0841,-97.2009,0.0,31.9,1111122 
NERRS,ioos:station:NOAA.NERRS:marcwwq:1,2011-09-01T20:30:00Z,28.0841,-97.2009,0.0,31.9,1111122 
NERRS,ioos:station:NOAA.NERRS:marcwwq:1,2011-09-01T21:00:00Z,28.0841,-97.2009,0.0,30.2,1111122 
NERRS,ioos:station:NOAA.NERRS:marcwwq:1,2011-09-01T21:30:00Z,28.0841,-97.2009,0.0,31.9,1111122 
NERRS,ioos:station:NOAA.NERRS:marcwwq:1,2011-09-01T22:00:00Z,28.0841,-97.2009,0.0,30.3,1111122 
NERRS,ioos:station:NOAA.NERRS:marcwwq:1,2011-09-01T22:30:00Z,28.0841,-97.2009,0.0,31.9,1111122 
NERRS,ioos:station:NOAA.NERRS:marcwwq:1,2011-09-01T23:00:00Z,28.0841,-97.2009,0.0,31.9,1111122 
NERRS,ioos:station:NOAA.NERRS:marcwwq:1,2011-09-01T23:30:00Z,28.0841,-97.2009,0.0,31.9,1111122 
NERRS,ioos:station:NOAA.NERRS:marcwwq:1,2011-09-02T06:00:00Z,28.0841,-97.2009,0.0,31.9,1111122 
NERRS,ioos:station:NOAA.NERRS:marcwwq:1,2011-09-02T06:30:00Z,28.0841,-97.2009,0.0,31.7,1111122 
NERRS,ioos:station:NOAA.NERRS:marcwwq:1,2011-09-02T07:00:00Z,28.0841,-97.2009,0.0,29.8,1111122 
NERRS,ioos:station:NOAA.NERRS:marcwwq:1,2011-09-02T07:30:00Z,28.0841,-97.2009,0.0,31.3,1111122 
NERRS,ioos:station:NOAA.NERRS:marcwwq:1,2011-09-02T08:00:00Z,28.0841,-97.2009,0.0,31.7,1111122 
NERRS,ioos:station:NOAA.NERRS:marcwwq:1,2011-09-02T08:30:00Z,28.0841,-97.2009,0.0,29.4,1111122 
NERRS,ioos:station:NOAA.NERRS:marcwwq:1,2011-09-02T09:00:00Z,28.0841,-97.2009,0.0,28.7,1111122 
NERRS,ioos:station:NOAA.NERRS:marcwwq:1,2011-09-02T09:30:00Z,28.0841,-97.2009,0.0,31.1,1111122 
NERRS,ioos:station:NOAA.NERRS:marcwwq:1,2011-09-02T10:00:00Z,28.0841,-97.2009,0.0,30.7,1111122 
NERRS,ioos:station:NOAA.NERRS:marcwwq:1,2011-09-02T10:30:00Z,28.0841,-97.2009,0.0,29.4,1111122 
NERRS,ioos:station:NOAA.NERRS:marcwwq:1,2011-09-02T11:00:00Z,28.0841,-97.2009,0.0,30.1,1111122 
NERRS,ioos:station:NOAA.NERRS:marcwwq:1,2011-09-02T11:30:00Z,28.0841,-97.2009,0.0,29.5,1111122 
NERRS,ioos:station:NOAA.NERRS:marcwwq:1,2011-09-02T12:00:00Z,28.0841,-97.2009,0.0,29.6,1111122 
NERRS,ioos:station:NOAA.NERRS:marcwwq:1,2011-09-02T12:30:00Z,28.0841,-97.2009,0.0,31.9,1111122 
NERRS,ioos:station:NOAA.NERRS:marcwwq:1,2011-09-02T13:00:00Z,28.0841,-97.2009,0.0,32.0,1111122 
NERRS,ioos:station:NOAA.NERRS:marcwwq:1,2011-09-02T13:30:00Z,28.0841,-97.2009,0.0,31.9,1111122 
NERRS,ioos:station:NOAA.NERRS:marcwwq:1,2011-09-02T14:00:00Z,28.0841,-97.2009,0.0,32.0,1111122 
NERRS,ioos:station:NOAA.NERRS:marcwwq:1,2011-09-02T14:30:00Z,28.0841,-97.2009,0.0,32.0,1111122 
NERRS,ioos:station:NOAA.NERRS:marcwwq:1,2011-09-02T15:00:00Z,28.0841,-97.2009,0.0,31.9,1111122 
NERRS,ioos:station:NOAA.NERRS:marcwwq:1,2011-09-02T15:30:00Z,28.0841,-97.2009,0.0,31.9,1111122 
NERRS,ioos:station:NOAA.NERRS:marcwwq:1,2011-09-02T16:00:00Z,28.0841,-97.2009,0.0,32.0,1111122 
NERRS,ioos:station:NOAA.NERRS:marcwwq:1,2011-09-02T16:30:00Z,28.0841,-97.2009,0.0,32.0,1111122 
NERRS,ioos:station:NOAA.NERRS:marcwwq:1,2011-09-02T17:00:00Z,28.0841,-97.2009,0.0,32.0,1111122 
NERRS,ioos:station:NOAA.NERRS:marcwwq:1,2011-09-02T17:30:00Z,28.0841,-97.2009,0.0,32.0,1111122 
NERRS,ioos:station:NOAA.NERRS:marcwwq:1,2011-09-02T18:00:00Z,28.0841,-97.2009,0.0,32.0,1111122 
NERRS,ioos:station:NOAA.NERRS:marcwwq:1,2011-09-02T18:30:00Z,28.0841,-97.2009,0.0,32.0,1111122 
NERRS,ioos:station:NOAA.NERRS:marcwwq:1,2011-09-02T19:00:00Z,28.0841,-97.2009,0.0,32.0,1111122 
NERRS,ioos:station:NOAA.NERRS:marcwwq:1,2011-09-02T19:30:00Z,28.0841,-97.2009,0.0,32.0,1111122 
NERRS,ioos:station:NOAA.NERRS:marcwwq:1,2011-09-02T20:00:00Z,28.0841,-97.2009,0.0,32.0,1111122 
NERRS,ioos:station:NOAA.NERRS:marcwwq:1,2011-09-02T20:30:00Z,28.0841,-97.2009,0.0,32.0,1111122 
NERRS,ioos:station:NOAA.NERRS:marcwwq:1,2011-09-02T21:00:00Z,28.0841,-97.2009,0.0,32.0,1111122 
NERRS,ioos:station:NOAA.NERRS:marcwwq:1,2011-09-02T21:30:00Z,28.0841,-97.2009,0.0,31.9,1111122 
NERRS,ioos:station:NOAA.NERRS:marcwwq:1,2011-09-02T22:00:00Z,28.0841,-97.2009,0.0,29.7,1111122 
NERRS,ioos:station:NOAA.NERRS:marcwwq:1,2011-09-02T22:30:00Z,28.0841,-97.2009,0.0,30.4,1111122 
NERRS,ioos:station:NOAA.NERRS:marcwwq:1,2011-09-02T23:00:00Z,28.0841,-97.2009,0.0,31.1,1111122 
NERRS,ioos:station:NOAA.NERRS:marcwwq:1,2011-09-02T23:30:00Z,28.0841,-97.2009,0.0,32.0,1111122 
NERRS,ioos:station:NOAA.NERRS:marcwwq:1,2011-09-03T06:00:00Z,28.0841,-97.2009,0.0,32.2,1111122 
NERRS,ioos:station:NOAA.NERRS:marcwwq:1,2011-09-03T06:30:00Z,28.0841,-97.2009,0.0,32.3,1111122 
NERRS,ioos:station:NOAA.NERRS:marcwwq:1,2011-09-03T07:00:00Z,28.0841,-97.2009,0.0,32.3,1111122 
NERRS,ioos:station:NOAA.NERRS:marcwwq:1,2011-09-03T07:30:00Z,28.0841,-97.2009,0.0,32.2,1111122 
NERRS,ioos:station:NOAA.NERRS:marcwwq:1,2011-09-03T08:00:00Z,28.0841,-97.2009,0.0,32.2,1111122 
NERRS,ioos:station:NOAA.NERRS:marcwwq:1,2011-09-03T08:30:00Z,28.0841,-97.2009,0.0,32.2,1111122 
NERRS,ioos:station:NOAA.NERRS:marcwwq:1,2011-09-03T09:00:00Z,28.0841,-97.2009,0.0,32.3,1111122 
NERRS,ioos:station:NOAA.NERRS:marcwwq:1,2011-09-03T09:30:00Z,28.0841,-97.2009,0.0,32.3,1111122 
NERRS,ioos:station:NOAA.NERRS:marcwwq:1,2011-09-03T10:00:00Z,28.0841,-97.2009,0.0,32.4,1111122 
NERRS,ioos:station:NOAA.NERRS:marcwwq:1,2011-09-03T10:30:00Z,28.0841,-97.2009,0.0,32.4,1111122 
NERRS,ioos:station:NOAA.NERRS:marcwwq:1,2011-09-03T11:00:00Z,28.0841,-97.2009,0.0,32.6,1111122 
NERRS,ioos:station:NOAA.NERRS:marcwwq:1,2011-09-03T11:30:00Z,28.0841,-97.2009,0.0,32.6,1111122 
NERRS,ioos:station:NOAA.NERRS:marcwwq:1,2011-09-03T12:00:00Z,28.0841,-97.2009,0.0,31.3,1111122 
NERRS,ioos:station:NOAA.NERRS:marcwwq:1,2011-09-03T13:00:00Z,28.0841,-97.2009,0.0,32.3,1111122 
NERRS,ioos:station:NOAA.NERRS:marcwwq:1,2011-09-03T13:30:00Z,28.0841,-97.2009,0.0,32.2,1111122 
NERRS,ioos:station:NOAA.NERRS:marcwwq:1,2011-09-03T14:00:00Z,28.0841,-97.2009,0.0,32.4,1111122 
NERRS,ioos:station:NOAA.NERRS:marcwwq:1,2011-09-03T14:30:00Z,28.0841,-97.2009,0.0,32.7,1111122 
NERRS,ioos:station:NOAA.NERRS:marcwwq:1,2011-09-03T15:00:00Z,28.0841,-97.2009,0.0,30.5,1111122 
NERRS,ioos:station:NOAA.NERRS:marcwwq:1,2011-09-03T15:30:00Z,28.0841,-97.2009,0.0,31.6,1111122 
NERRS,ioos:station:NOAA.NERRS:marcwwq:1,2011-09-03T16:00:00Z,28.0841,-97.2009,0.0,31.4,1111122 
NERRS,ioos:station:NOAA.NERRS:marcwwq:1,2011-09-03T16:30:00Z,28.0841,-97.2009,0.0,31.3,1111122 
NERRS,ioos:station:NOAA.NERRS:marcwwq:1,2011-09-03T17:00:00Z,28.0841,-97.2009,0.0,31.8,1111122 
NERRS,ioos:station:NOAA.NERRS:marcwwq:1,2011-09-03T17:30:00Z,28.0841,-97.2009,0.0,31.9,1111122 
NERRS,ioos:station:NOAA.NERRS:marcwwq:1,2011-09-03T18:00:00Z,28.0841,-97.2009,0.0,32.4,1111122 
NERRS,ioos:station:NOAA.NERRS:marcwwq:1,2011-09-03T18:30:00Z,28.0841,-97.2009,0.0,32.5,1111122 
NERRS,ioos:station:NOAA.NERRS:marcwwq:1,2011-09-03T19:00:00Z,28.0841,-97.2009,0.0,30.6,1111122 
NERRS,ioos:station:NOAA.NERRS:marcwwq:1,2011-09-03T19:30:00Z,28.0841,-97.2009,0.0,32.0,1111122 
NERRS,ioos:station:NOAA.NERRS:marcwwq:1,2011-09-03T20:00:00Z,28.0841,-97.2009,0.0,31.3,1111122 
NERRS,ioos:station:NOAA.NERRS:marcwwq:1,2011-09-03T20:30:00Z,28.0841,-97.2009,0.0,32.9,1111122 
NERRS,ioos:station:NOAA.NERRS:marcwwq:1,2011-09-03T21:00:00Z,28.0841,-97.2009,0.0,32.9,1111122 
NERRS,ioos:station:NOAA.NERRS:marcwwq:1,2011-09-03T21:30:00Z,28.0841,-97.2009,0.0,32.9,1111122 
NERRS,ioos:station:NOAA.NERRS:marcwwq:1,2011-09-03T22:00:00Z,28.0841,-97.2009,0.0,32.9,1111122 
NERRS,ioos:station:NOAA.NERRS:marcwwq:1,2011-09-03T22:30:00Z,28.0841,-97.2009,0.0,32.9,1111122 
NERRS,ioos:station:NOAA.NERRS:marcwwq:1,2011-09-03T23:00:00Z,28.0841,-97.2009,0.0,32.9,1111122 
NERRS,ioos:station:NOAA.NERRS:marcwwq:1,2011-09-03T23:30:00Z,28.0841,-97.2009,0.0,32.9,1111122 
NERRS,ioos:station:NOAA.NERRS:marcwwq:1,2011-09-04T06:00:00Z,28.0841,-97.2009,0.0,32.1,1111122 
NERRS,ioos:station:NOAA.NERRS:marcwwq:1,2011-09-04T06:30:00Z,28.0841,-97.2009,0.0,32.4,1111122 
NERRS,ioos:station:NOAA.NERRS:marcwwq:1,2011-09-04T07:00:00Z,28.0841,-97.2009,0.0,32.1,1111122 
NERRS,ioos:station:NOAA.NERRS:marcwwq:1,2011-09-04T07:30:00Z,28.0841,-97.2009,0.0,31.9,1111122 
NERRS,ioos:station:NOAA.NERRS:marcwwq:1,2011-09-04T08:00:00Z,28.0841,-97.2009,0.0,32.4,1111122 
NERRS,ioos:station:NOAA.NERRS:marcwwq:1,2011-09-04T08:30:00Z,28.0841,-97.2009,0.0,31.5,1111122 
NERRS,ioos:station:NOAA.NERRS:marcwwq:1,2011-09-04T09:00:00Z,28.0841,-97.2009,0.0,32.3,1111122 
NERRS,ioos:station:NOAA.NERRS:marcwwq:1,2011-09-04T09:30:00Z,28.0841,-97.2009,0.0,32.6,1111122 
NERRS,ioos:station:NOAA.NERRS:marcwwq:1,2011-09-04T10:00:00Z,28.0841,-97.2009,0.0,32.4,1111122 
NERRS,ioos:station:NOAA.NERRS:marcwwq:1,2011-09-04T10:30:00Z,28.0841,-97.2009,0.0,32.5,1111122 
NERRS,ioos:station:NOAA.NERRS:marcwwq:1,2011-09-04T11:00:00Z,28.0841,-97.2009,0.0,32.2,1111122 
NERRS,ioos:station:NOAA.NERRS:marcwwq:1,2011-09-04T11:30:00Z,28.0841,-97.2009,0.0,32.3,1111122 
NERRS,ioos:station:NOAA.NERRS:marcwwq:1,2011-09-04T12:00:00Z,28.0841,-97.2009,0.0,32.3,1111122 
NERRS,ioos:station:NOAA.NERRS:marcwwq:1,2011-09-04T12:30:00Z,28.0841,-97.2009,0.0,32.0,1111122 
NERRS,ioos:station:NOAA.NERRS:marcwwq:1,2011-09-04T13:00:00Z,28.0841,-97.2009,0.0,32.1,1111122 
NERRS,ioos:station:NOAA.NERRS:marcwwq:1,2011-09-04T13:30:00Z,28.0841,-97.2009,0.0,32.6,1111122 
NERRS,ioos:station:NOAA.NERRS:marcwwq:1,2011-09-04T14:00:00Z,28.0841,-97.2009,0.0,33.4,1111122 
NERRS,ioos:station:NOAA.NERRS:marcwwq:1,2011-09-04T14:30:00Z,28.0841,-97.2009,0.0,33.4,1111122 
NERRS,ioos:station:NOAA.NERRS:marcwwq:1,2011-09-04T15:00:00Z,28.0841,-97.2009,0.0,33.4,1111122 
NERRS,ioos:station:NOAA.NERRS:marcwwq:1,2011-09-04T15:30:00Z,28.0841,-97.2009,0.0,33.3,1111122 
NERRS,ioos:station:NOAA.NERRS:marcwwq:1,2011-09-04T16:00:00Z,28.0841,-97.2009,0.0,33.3,1111122 
NERRS,ioos:station:NOAA.NERRS:marcwwq:1,2011-09-04T16:30:00Z,28.0841,-97.2009,0.0,33.3,1111122 
NERRS,ioos:station:NOAA.NERRS:marcwwq:1,2011-09-04T17:00:00Z,28.0841,-97.2009,0.0,33.3,1111122 
NERRS,ioos:station:NOAA.NERRS:marcwwq:1,2011-09-04T17:30:00Z,28.0841,-97.2009,0.0,33.3,1111122 
NERRS,ioos:station:NOAA.NERRS:marcwwq:1,2011-09-04T18:00:00Z,28.0841,-97.2009,0.0,33.4,1111122 
NERRS,ioos:station:NOAA.NERRS:marcwwq:1,2011-09-04T18:30:00Z,28.0841,-97.2009,0.0,33.4,1111122 
NERRS,ioos:station:NOAA.NERRS:marcwwq:1,2011-09-04T19:00:00Z,28.0841,-97.2009,0.0,33.4,1111122 
NERRS,ioos:station:NOAA.NERRS:marcwwq:1,2011-09-04T19:30:00Z,28.0841,-97.2009,0.0,33.4,1111122 
NERRS,ioos:station:NOAA.NERRS:marcwwq:1,2011-09-04T20:00:00Z,28.0841,-97.2009,0.0,33.5,1111122 
NERRS,ioos:station:NOAA.NERRS:marcwwq:1,2011-09-04T20:30:00Z,28.0841,-97.2009,0.0,33.5,1111122 
NERRS,ioos:station:NOAA.NERRS:marcwwq:1,2011-09-04T21:00:00Z,28.0841,-97.2009,0.0,33.6,1111122 
NERRS,ioos:station:NOAA.NERRS:marcwwq:1,2011-09-04T21:30:00Z,28.0841,-97.2009,0.0,33.5,1111122 
NERRS,ioos:station:NOAA.NERRS:marcwwq:1,2011-09-04T22:00:00Z,28.0841,-97.2009,0.0,33.7,1111122 
NERRS,ioos:station:NOAA.NERRS:marcwwq:1,2011-09-04T22:30:00Z,28.0841,-97.2009,0.0,33.8,1111122 
NERRS,ioos:station:NOAA.NERRS:marcwwq:1,2011-09-04T23:00:00Z,28.0841,-97.2009,0.0,33.9,1111122 
NERRS,ioos:station:NOAA.NERRS:marcwwq:1,2011-09-05T06:00:00Z,28.0841,-97.2009,0.0,32.8,1111122 
NERRS,ioos:station:NOAA.NERRS:marcwwq:1,2011-09-05T07:00:00Z,28.0841,-97.2009,0.0,32.3,1111122 
NERRS,ioos:station:NOAA.NERRS:marcwwq:1,2011-09-05T07:30:00Z,28.0841,-97.2009,0.0,32.1,1111122 
NERRS,ioos:station:NOAA.NERRS:marcwwq:1,2011-09-05T08:00:00Z,28.0841,-97.2009,0.0,32.1,1111122 
NERRS,ioos:station:NOAA.NERRS:marcwwq:1,2011-09-05T08:30:00Z,28.0841,-97.2009,0.0,32.0,1111122 
NERRS,ioos:station:NOAA.NERRS:marcwwq:1,2011-09-05T09:00:00Z,28.0841,-97.2009,0.0,32.4,1111122 
NERRS,ioos:station:NOAA.NERRS:marcwwq:1,2011-09-05T09:30:00Z,28.0841,-97.2009,0.0,32.3,1111122 
NERRS,ioos:station:NOAA.NERRS:marcwwq:1,2011-09-05T10:00:00Z,28.0841,-97.2009,0.0,32.2,1111122 
NERRS,ioos:station:NOAA.NERRS:marcwwq:1,2011-09-05T10:30:00Z,28.0841,-97.2009,0.0,32.2,1111122 
NERRS,ioos:station:NOAA.NERRS:marcwwq:1,2011-09-05T11:00:00Z,28.0841,-97.2009,0.0,32.2,1111122 
NERRS,ioos:station:NOAA.NERRS:marcwwq:1,2011-09-05T11:30:00Z,28.0841,-97.2009,0.0,32.5,1111122 
NERRS,ioos:station:NOAA.NERRS:marcwwq:1,2011-09-05T12:00:00Z,28.0841,-97.2009,0.0,32.1,1111122 
NERRS,ioos:station:NOAA.NERRS:marcwwq:1,2011-09-05T12:30:00Z,28.0841,-97.2009,0.0,33.2,1111122 
NERRS,ioos:station:NOAA.NERRS:marcwwq:1,2011-09-05T13:00:00Z,28.0841,-97.2009,0.0,33.6,1111122 
NERRS,ioos:station:NOAA.NERRS:marcwwq:1,2011-09-05T13:30:00Z,28.0841,-97.2009,0.0,33.6,1111122 
NERRS,ioos:station:NOAA.NERRS:marcwwq:1,2011-09-05T14:00:00Z,28.0841,-97.2009,0.0,33.6,1111122 
NERRS,ioos:station:NOAA.NERRS:marcwwq:1,2011-09-05T14:30:00Z,28.0841,-97.2009,0.0,33.6,1111122 
NERRS,ioos:station:NOAA.NERRS:marcwwq:1,2011-09-05T15:00:00Z,28.0841,-97.2009,0.0,33.7,1111122 
NERRS,ioos:station:NOAA.NERRS:marcwwq:1,2011-09-05T15:30:00Z,28.0841,-97.2009,0.0,33.8,1111122 
NERRS,ioos:station:NOAA.NERRS:marcwwq:1,2011-09-05T16:00:00Z,28.0841,-97.2009,0.0,33.9,1111122 
NERRS,ioos:station:NOAA.NERRS:marcwwq:1,2011-09-05T16:30:00Z,28.0841,-97.2009,0.0,33.9,1111122 
NERRS,ioos:station:NOAA.NERRS:marcwwq:1,2011-09-05T17:00:00Z,28.0841,-97.2009,0.0,33.9,1111122 
NERRS,ioos:station:NOAA.NERRS:marcwwq:1,2011-09-05T17:30:00Z,28.0841,-97.2009,0.0,33.3,1111122 
NERRS,ioos:station:NOAA.NERRS:marcwwq:1,2011-09-05T18:00:00Z,28.0841,-97.2009,0.0,33.7,1111122 
NERRS,ioos:station:NOAA.NERRS:marcwwq:1,2011-09-05T18:30:00Z,28.0841,-97.2009,0.0,32.1,1111122 
NERRS,ioos:station:NOAA.NERRS:marcwwq:1,2011-09-05T19:00:00Z,28.0841,-97.2009,0.0,33.6,1111122 
NERRS,ioos:station:NOAA.NERRS:marcwwq:1,2011-09-05T19:30:00Z,28.0841,-97.2009,0.0,33.7,1111122 
NERRS,ioos:station:NOAA.NERRS:marcwwq:1,2011-09-05T20:00:00Z,28.0841,-97.2009,0.0,33.8,1111122 
NERRS,ioos:station:NOAA.NERRS:marcwwq:1,2011-09-05T20:30:00Z,28.0841,-97.2009,0.0,34.1,1111122 
NERRS,ioos:station:NOAA.NERRS:marcwwq:1,2011-09-05T21:00:00Z,28.0841,-97.2009,0.0,33.0,1111122 
NERRS,ioos:station:NOAA.NERRS:marcwwq:1,2011-09-05T21:30:00Z,28.0841,-97.2009,0.0,34.1,1111122 
NERRS,ioos:station:NOAA.NERRS:marcwwq:1,2011-09-05T22:00:00Z,28.0841,-97.2009,0.0,32.3,1111122 
NERRS,ioos:station:NOAA.NERRS:marcwwq:1,2011-09-05T22:30:00Z,28.0841,-97.2009,0.0,33.5,1111122 
NERRS,ioos:station:NOAA.NERRS:marcwwq:1,2011-09-05T23:00:00Z,28.0841,-97.2009,0.0,32.3,1111122 
NERRS,ioos:station:NOAA.NERRS:marcwwq:1,2011-09-05T23:30:00Z,28.0841,-97.2009,0.0,32.8,1111122 
NERRS,ioos:station:NOAA.NERRS:marcwwq:1,2011-09-06T06:00:00Z,28.0841,-97.2009,0.0,31.3,1111122 
NERRS,ioos:station:NOAA.NERRS:marcwwq:1,2011-09-06T06:30:00Z,28.0841,-97.2009,0.0,29.7,1111122 
NERRS,ioos:station:NOAA.NERRS:marcwwq:1,2011-09-06T07:00:00Z,28.0841,-97.2009,0.0,32.0,1111122 
NERRS,ioos:station:NOAA.NERRS:marcwwq:1,2011-09-06T07:30:00Z,28.0841,-97.2009,0.0,31.6,1111122 
NERRS,ioos:station:NOAA.NERRS:marcwwq:1,2011-09-06T08:00:00Z,28.0841,-97.2009,0.0,31.5,1111122 
NERRS,ioos:station:NOAA.NERRS:marcwwq:1,2011-09-06T08:30:00Z,28.0841,-97.2009,0.0,31.2,1111122 
NERRS,ioos:station:NOAA.NERRS:marcwwq:1,2011-09-06T09:00:00Z,28.0841,-97.2009,0.0,32.1,1111122 
NERRS,ioos:station:NOAA.NERRS:marcwwq:1,2011-09-06T09:30:00Z,28.0841,-97.2009,0.0,31.6,1111122 
NERRS,ioos:station:NOAA.NERRS:marcwwq:1,2011-09-06T10:00:00Z,28.0841,-97.2009,0.0,31.2,1111122 
NERRS,ioos:station:NOAA.NERRS:marcwwq:1,2011-09-06T10:30:00Z,28.0841,-97.2009,0.0,32.0,1111122 
NERRS,ioos:station:NOAA.NERRS:marcwwq:1,2011-09-06T11:00:00Z,28.0841,-97.2009,0.0,32.1,1111122 
NERRS,ioos:station:NOAA.NERRS:marcwwq:1,2011-09-06T11:30:00Z,28.0841,-97.2009,0.0,32.1,1111122 
NERRS,ioos:station:NOAA.NERRS:marcwwq:1,2011-09-06T12:00:00Z,28.0841,-97.2009,0.0,32.2,1111122 
NERRS,ioos:station:NOAA.NERRS:marcwwq:1,2011-09-06T12:30:00Z,28.0841,-97.2009,0.0,32.5,1111122 
NERRS,ioos:station:NOAA.NERRS:marcwwq:1,2011-09-06T13:00:00Z,28.0841,-97.2009,0.0,32.9,1111122 
NERRS,ioos:station:NOAA.NERRS:marcwwq:1,2011-09-06T13:30:00Z,28.0841,-97.2009,0.0,33.2,1111122 
NERRS,ioos:station:NOAA.NERRS:marcwwq:1,2011-09-06T14:00:00Z,28.0841,-97.2009,0.0,33.3,1111122 
NERRS,ioos:station:NOAA.NERRS:marcwwq:1,2011-09-06T14:30:00Z,28.0841,-97.2009,0.0,33.0,1111122 
NERRS,ioos:station:NOAA.NERRS:marcwwq:1,2011-09-06T15:00:00Z,28.0841,-97.2009,0.0,32.5,1111122 
NERRS,ioos:station:NOAA.NERRS:marcwwq:1,2011-09-06T16:00:00Z,28.0841,-97.2009,0.0,31.7,1111122 
NERRS,ioos:station:NOAA.NERRS:marcwwq:1,2011-09-06T16:30:00Z,28.0841,-97.2009,0.0,32.4,1111122 
NERRS,ioos:station:NOAA.NERRS:marcwwq:1,2011-09-06T17:00:00Z,28.0841,-97.2009,0.0,33.4,1111122 
NERRS,ioos:station:NOAA.NERRS:marcwwq:1,2011-09-06T17:30:00Z,28.0841,-97.2009,0.0,33.4,1111122 
NERRS,ioos:station:NOAA.NERRS:marcwwq:1,2011-09-06T18:00:00Z,28.0841,-97.2009,0.0,33.5,1111122 
NERRS,ioos:station:NOAA.NERRS:marcwwq:1,2011-09-06T18:30:00Z,28.0841,-97.2009,0.0,33.3,1111122 
NERRS,ioos:station:NOAA.NERRS:marcwwq:1,2011-09-06T19:00:00Z,28.0841,-97.2009,0.0,33.6,1111122 
NERRS,ioos:station:NOAA.NERRS:marcwwq:1,2011-09-06T19:30:00Z,28.0841,-97.2009,0.0,33.5,1111122 
NERRS,ioos:station:NOAA.NERRS:marcwwq:1,2011-09-06T20:00:00Z,28.0841,-97.2009,0.0,33.5,1111122 
NERRS,ioos:station:NOAA.NERRS:marcwwq:1,2011-09-06T20:30:00Z,28.0841,-97.2009,0.0,32.7,1111122 
NERRS,ioos:station:NOAA.NERRS:marcwwq:1,2011-09-06T21:00:00Z,28.0841,-97.2009,0.0,31.4,1111122 
NERRS,ioos:station:NOAA.NERRS:marcwwq:1,2011-09-06T21:30:00Z,28.0841,-97.2009,0.0,33.2,1111122 
NERRS,ioos:station:NOAA.NERRS:marcwwq:1,2011-09-06T22:00:00Z,28.0841,-97.2009,0.0,31.2,1111122 
NERRS,ioos:station:NOAA.NERRS:marcwwq:1,2011-09-06T22:30:00Z,28.0841,-97.2009,0.0,32.9,1111122 
NERRS,ioos:station:NOAA.NERRS:marcwwq:1,2011-09-06T23:00:00Z,28.0841,-97.2009,0.0,33.0,1111122 
NERRS,ioos:station:NOAA.NERRS:marcwwq:1,2011-09-06T23:30:00Z,28.0841,-97.2009,0.0,33.0,1111122 
NERRS,ioos:station:NOAA.NERRS:marcwwq:1,2011-09-07T06:00:00Z,28.0841,-97.2009,0.0,31.7,1111122 
NERRS,ioos:station:NOAA.NERRS:marcwwq:1,2011-09-07T06:30:00Z,28.0841,-97.2009,0.0,31.5,1111122 
NERRS,ioos:station:NOAA.NERRS:marcwwq:1,2011-09-07T07:00:00Z,28.0841,-97.2009,0.0,32.2,1111122 
NERRS,ioos:station:NOAA.NERRS:marcwwq:1,2011-09-07T07:30:00Z,28.0841,-97.2009,0.0,33.0,1111122 
NERRS,ioos:station:NOAA.NERRS:marcwwq:1,2011-09-07T08:00:00Z,28.0841,-97.2009,0.0,32.1,1111122 
NERRS,ioos:station:NOAA.NERRS:marcwwq:1,2011-09-07T08:30:00Z,28.0841,-97.2009,0.0,31.4,1111122 
NERRS,ioos:station:NOAA.NERRS:marcwwq:1,2011-09-07T09:00:00Z,28.0841,-97.2009,0.0,31.3,1111122 
NERRS,ioos:station:NOAA.NERRS:marcwwq:1,2011-09-07T09:30:00Z,28.0841,-97.2009,0.0,31.8,1111122 
NERRS,ioos:station:NOAA.NERRS:marcwwq:1,2011-09-07T10:00:00Z,28.0841,-97.2009,0.0,32.8,1111122 
NERRS,ioos:station:NOAA.NERRS:marcwwq:1,2011-09-07T10:30:00Z,28.0841,-97.2009,0.0,32.3,1111122 
NERRS,ioos:station:NOAA.NERRS:marcwwq:1,2011-09-07T11:00:00Z,28.0841,-97.2009,0.0,32.2,1111122 
NERRS,ioos:station:NOAA.NERRS:marcwwq:1,2011-09-07T11:30:00Z,28.0841,-97.2009,0.0,32.1,1111122 
NERRS,ioos:station:NOAA.NERRS:marcwwq:1,2011-09-07T12:00:00Z,28.0841,-97.2009,0.0,32.4,1111122 
NERRS,ioos:station:NOAA.NERRS:marcwwq:1,2011-09-07T12:30:00Z,28.0841,-97.2009,0.0,33.2,1111122 
NERRS,ioos:station:NOAA.NERRS:marcwwq:1,2011-09-07T13:00:00Z,28.0841,-97.2009,0.0,33.2,1111122 
NERRS,ioos:station:NOAA.NERRS:marcwwq:1,2011-09-07T13:30:00Z,28.0841,-97.2009,0.0,32.9,1111122 
NERRS,ioos:station:NOAA.NERRS:marcwwq:1,2011-09-07T14:00:00Z,28.0841,-97.2009,0.0,33.3,1111122 
NERRS,ioos:station:NOAA.NERRS:marcwwq:1,2011-09-07T14:30:00Z,28.0841,-97.2009,0.0,32.1,1111122 
NERRS,ioos:station:NOAA.NERRS:marcwwq:1,2011-09-07T15:00:00Z,28.0841,-97.2009,0.0,31.3,1111122 
NERRS,ioos:station:NOAA.NERRS:marcwwq:1,2011-09-07T15:30:00Z,28.0841,-97.2009,0.0,32.8,1111122 
NERRS,ioos:station:NOAA.NERRS:marcwwq:1,2011-09-07T16:00:00Z,28.0841,-97.2009,0.0,33.3,1111122 
NERRS,ioos:station:NOAA.NERRS:marcwwq:1,2011-09-07T16:30:00Z,28.0841,-97.2009,0.0,33.3,1111122 
NERRS,ioos:station:NOAA.NERRS:marcwwq:1,2011-09-07T17:00:00Z,28.0841,-97.2009,0.0,33.0,1111122 
NERRS,ioos:station:NOAA.NERRS:marcwwq:1,2011-09-07T17:30:00Z,28.0841,-97.2009,0.0,30.8,1111122 
NERRS,ioos:station:NOAA.NERRS:marcwwq:1,2011-09-07T18:00:00Z,28.0841,-97.2009,0.0,33.2,1111122 
NERRS,ioos:station:NOAA.NERRS:marcwwq:1,2011-09-07T18:30:00Z,28.0841,-97.2009,0.0,33.3,1111122 
NERRS,ioos:station:NOAA.NERRS:marcwwq:1,2011-09-07T19:00:00Z,28.0841,-97.2009,0.0,32.7,1111122 
NERRS,ioos:station:NOAA.NERRS:marcwwq:1,2011-09-07T19:30:00Z,28.0841,-97.2009,0.0,33.5,1111122 
NERRS,ioos:station:NOAA.NERRS:marcwwq:1,2011-09-07T20:00:00Z,28.0841,-97.2009,0.0,33.7,1111122 
NERRS,ioos:station:NOAA.NERRS:marcwwq:1,2011-09-07T20:30:00Z,28.0841,-97.2009,0.0,33.7,1111122 
NERRS,ioos:station:NOAA.NERRS:marcwwq:1,2011-09-07T21:00:00Z,28.0841,-97.2009,0.0,33.6,1111122 
NERRS,ioos:station:NOAA.NERRS:marcwwq:1,2011-09-07T21:30:00Z,28.0841,-97.2009,0.0,33.1,1111122 
NERRS,ioos:station:NOAA.NERRS:marcwwq:1,2011-09-07T22:00:00Z,28.0841,-97.2009,0.0,33.2,1111122 
NERRS,ioos:station:NOAA.NERRS:marcwwq:1,2011-09-07T22:30:00Z,28.0841,-97.2009,0.0,33.2,1111122 
NERRS,ioos:station:NOAA.NERRS:marcwwq:1,2011-09-07T23:00:00Z,28.0841,-97.2009,0.0,33.2,1111122 
NERRS,ioos:station:NOAA.NERRS:marcwwq:1,2011-09-07T23:30:00Z,28.0841,-97.2009,0.0,33.2,1111122 
NERRS,ioos:station:NOAA.NERRS:marcwwq:1,2011-09-08T06:00:00Z,28.0841,-97.2009,0.0,33.1,1111122 